Location: Bonningues
(50.7927°N, 2.0150°E)
Time: 08:21:51
(UTC+00:00)

SJ-6B - Pass Details

Date: 08 August 2020
Orbit: 510 x 581 km, 97.6° (Epoch: 26 September)

Event Time Altitude Azimuth Distance (km) Brightness Sun altitude
Rises 20:01:09 0° 183° (S) 2,777 6.1 -5.8°
Reaches altitude 10° 20:03:24 10° 190° (S) 1,877 5.3 -6.1°
Maximum altitude 20:07:16 42° 262° (W) 825 4.2 -6.6°
Drops below altitude 10° 20:11:06 10° 334° (NNW) 1,858 6.7 -7.1°
Sets 20:13:19 0° 341° (NNW) 2,746 7.4 -7.4°
